Wetbulb
75.13 74.00 74.35 75.24 74.61 74.81 75.42 78.18 77.16 76.41 77.15 77.08 77.11 76.77 77.55 77.22 77.18 77.87 77.24 76.00 76.83 76.37
74.63 74.01 74.17 75.23 75.89 75.46 76.72 77.19 76.50 76.88 76.74 76.89 76.80 76.92 77.20 76.42 76.97 77.32 77.38 77.58 77.31 76.93
74.66 74.42 73.81 74.28 75.14 75.91 76.39 76.62 76.90 76.62 76.60 77.22 77.19 77.27 77.05 76.39 77.00 76.57 76.46 76.40 77.30 77.53
74.76 74.25 74.63 74.31 74.74 75.29 76.01 76.35 76.40 76.54 76.80 76.89 76.99 77.04 76.96 77.10 76.54 76.04 76.44 76.69 76.89 76.63
74.52 75.16 74.97 74.49 73.81 74.63 74.94 75.92 76.15 76.26 75.98 76.07 76.56 76.73 76.54 75.83 75.61 75.93 75.54 75.72 76.35 76.03
73.16 73.48 74.31 75.26 75.96 75.51 75.68 76.16 75.59 75.32 75.15 75.24 75.79 76.63 76.45 76.67 76.13 75.82 76.08 76.11 75.91 75.86
70.99 71.41 71.20 73.33 75.71 76.31 76.80 76.07 75.41 75.29 74.92 74.46 74.55 75.14 75.58 76.27 76.45 76.27 76.11 76.47 76.05 75.80
69.73 70.40 71.51 71.34 72.84 75.46 76.41 76.23 76.13 75.48 75.12 74.16 73.74 73.73 74.31 74.86 75.30 75.69 75.41 76.14 76.55 76.59
69.29 69.40 68.55 69.41 70.86 72.28 73.57 74.43 74.99 74.77 75.47 75.87 75.05 63.64 65.70 70.70 74.65 75.92 76.22 76.16 76.69 77.28
65.86 67.55 67.71 67.95 67.87 68.75 69.73 72.55 72.73 72.63 72.35 71.81 71.64 62.42 63.64 66.79 76.11 76.59 76.65 76.93 76.96 76.82
61.86 63.94 65.44 66.95 67.34 67.83 68.36 69.39 69.78 70.29 71.32 71.55 69.78 61.22 61.15 63.89 75.22 75.92 75.26 75.53 75.64 75.60
61.72 61.76 60.41 61.08 63.10 66.00 66.61 67.13 67.28 68.88 69.26 70.28 70.16 61.12 61.42 67.00 71.68 73.09 73.32 73.69 73.72 73.74
58.24 58.52 58.50 58.95 58.94 61.48 63.74 64.48 65.51 67.51 68.15 63.17 65.41 56.47 56.71 62.62 67.43 66.69 68.12 70.12 68.10 61.33
55.78 56.00 56.76 57.71 58.98 60.21 61.02 62.20 62.81 63.89 64.59 65.28 62.01 59.03 53.41 53.92 64.55 63.50 63.83 64.25 64.76 66.78
MSLP
1021.16 1021.19 1021.35 1021.45 1021.44 1021.58 1021.68 1021.89 1022.01 1022.27 1022.50 1022.60 1022.78 1022.94 1023.07 1022.99 1022.97 1023.17 1023.30 1023.36 1023.27 1022.88
1021.14 1021.27 1021.39 1021.61 1021.61 1021.49 1021.55 1021.71 1021.81 1021.97 1022.29 1022.46 1022.65 1022.80 1022.98 1022.99 1023.09 1023.14 1023.27 1023.40 1023.37 1023.09
1020.94 1021.20 1021.35 1021.53 1021.54 1021.50 1021.34 1021.44 1021.69 1021.84 1021.94 1022.09 1022.36 1022.57 1022.88 1023.03 1023.06 1023.16 1023.18 1023.16 1023.25 1023.27
1020.64 1020.97 1021.18 1021.28 1021.30 1021.30 1021.35 1021.50 1021.70 1021.80 1021.94 1022.10 1022.28 1022.39 1022.67 1022.80 1023.04 1023.11 1023.12 1023.23 1023.22 1023.18
1020.68 1020.79 1020.83 1021.01 1021.10 1020.98 1021.21 1021.48 1021.65 1021.74 1021.90 1021.91 1022.11 1022.22 1022.64 1022.75 1022.73 1022.90 1022.94 1023.03 1023.12 1023.08
1020.73 1020.86 1020.83 1020.89 1020.93 1021.01 1021.12 1021.33 1021.37 1021.57 1021.77 1021.93 1022.04 1022.33 1022.52 1022.62 1022.68 1022.85 1022.90 1022.91 1022.92 1022.86
1020.92 1021.02 1021.14 1021.04 1020.89 1020.82 1020.72 1021.08 1021.32 1021.47 1021.67 1021.91 1021.92 1022.14 1022.46 1022.62 1022.65 1022.71 1022.72 1022.70 1022.59 1022.59
1021.21 1021.24 1021.24 1021.18 1020.98 1020.93 1020.82 1020.95 1021.17 1021.36 1021.65 1021.82 1021.84 1021.90 1022.51 1022.53 1022.50 1022.45 1022.43 1022.43 1022.35 1021.97
1021.32 1021.60 1021.65 1021.62 1021.35 1021.24 1021.30 1021.22 1021.29 1021.43 1021.67 1021.87 1022.02 1022.78 1022.57 1022.58 1022.22 1022.23 1022.23 1022.15 1021.98 1021.78
1021.36 1022.13 1021.89 1022.14 1021.89 1021.83 1021.80 1021.76 1021.61 1021.77 1022.02 1022.36 1022.69 1022.92 1022.64 1022.42 1021.97 1021.94 1021.92 1021.92 1021.78 1021.64
1022.03 1022.65 1022.37 1022.40 1022.21 1022.24 1022.27 1022.24 1022.10 1022.18 1022.33 1022.55 1022.91 1023.18 1023.07 1022.55 1021.97 1022.01 1021.97 1021.90 1021.77 1021.80
1022.88 1023.05 1022.94 1022.57 1022.89 1022.72 1022.66 1022.64 1022.59 1022.70 1022.90 1022.99 1023.28 1023.31 1023.11 1022.72 1022.35 1022.06 1022.11 1022.04 1021.77 1022.18
1023.44 1023.13 1023.23 1023.47 1023.54 1023.47 1023.11 1023.19 1022.91 1022.93 1023.40 1023.71 1023.86 1024.08 1023.88 1022.93 1022.88 1022.77 1022.59 1022.62 1022.84 1023.13
1024.02 1023.81 1023.92 1023.96 1023.93 1023.81 1023.53 1023.36 1023.38 1023.73 1024.00 1024.39 1024.67 1024.52 1024.48 1024.44 1023.75 1023.57 1023.11 1022.64 1022.78 1022.82
Wind_Speed
6 4 4 6 5 6 5 4 6 6 5 5 4 4 3 3 2 2 1 3 3 3
6 5 4 4 5 5 5 4 5 6 6 5 5 5 4 4 4 3 2 1 1 1
6 5 4 4 5 5 5 6 6 7 7 7 5 5 6 4 4 4 2 2 3 1
7 7 6 4 6 6 4 6 5 5 5 7 7 7 7 6 5 5 4 4 4 4
3 4 6 5 5 7 6 5 5 6 6 8 8 8 7 7 6 7 6 5 5 6
5 4 4 6 6 6 6 5 6 6 5 5 5 7 6 7 8 7 7 6 6 6
5 4 2 2 6 7 7 6 7 7 6 5 6 5 6 7 6 6 6 6 6 6
6 5 4 3 0 4 6 6 5 5 5 5 4 4 6 7 7 6 7 7 7 6
8 7 7 5 4 4 4 5 5 4 4 5 1 5 3 6 6 7 6 7 6 6
8 6 7 5 7 6 4 5 7 6 6 6 5 4 5 3 5 5 6 6 6 7
8 5 6 6 8 7 5 5 6 5 4 5 5 7 8 6 2 2 4 5 6 7
7 7 5 7 6 5 5 5 7 6 5 5 7 5 5 5 4 2 2 3 4 6
6 7 8 5 5 3 4 5 6 9 8 8 8 12 12 8 5 7 5 6 4 8
7 8 7 7 6 6 6 8 9 8 8 8 11 12 14 14 5 5 4 3 3 3
Wind_Direction
205 211 216 205 197 193 198 180 173 184 190 195 187 194 193 195 199 119 79 80 47 73
195 205 213 212 214 203 198 191 195 190 188 199 205 205 203 218 215 208 179 131 135 325
192 188 206 211 219 214 210 200 201 207 205 194 203 202 208 213 202 215 226 220 179 219
195 181 182 202 214 199 206 211 212 220 217 215 209 212 211 210 217 223 224 230 228 227
183 200 190 207 206 191 203 206 223 215 222 226 217 215 211 218 218 222 223 230 239 247
143 156 207 219 211 210 201 197 208 213 214 240 242 224 225 225 221 232 238 235 244 256
98 90 93 282 234 208 203 204 189 191 198 223 214 220 237 241 236 232 243 237 237 246
89 80 64 48 55 228 198 189 191 186 189 196 221 222 227 238 253 246 250 256 250 239
91 80 65 53 74 94 133 131 136 149 202 199 151 27 35 254 243 251 254 249 245 248
84 79 85 78 67 63 82 114 112 107 110 111 92 50 62 17 241 251 259 268 280 279
87 95 99 96 90 82 78 84 90 91 98 114 74 29 6 341 116 243 263 271 276 275
105 105 97 77 74 92 89 91 90 79 89 102 69 25 360 0 28 44 359 315 3 299
76 72 70 81 61 72 94 91 99 93 72 57 73 33 25 25 54 50 31 41 74 53
68 78 60 62 61 66 83 88 83 82 72 64 41 42 25 12 42 10 4 22 23 37